Temp
61 61 61 61 60 60 61 61 61 61 61 62 62 62 62 62 62 66 63 71 69 72 72 73 73 74 69 65 66 65 50 44 49 55 56 63 64 72 74 72 75 74 76 78 81
61 61 61 61 61 60 60 60 61 61 61 62 62 61 61 61 62 65 76 74 74 73 73 70 68 70 62 64 64 59 48 51 60 59 57 60 64 66 69 68 69 73 79 79 79
61 61 61 61 61 60 60 60 60 61 61 61 61 61 61 60 62 67 77 74 73 73 71 70 69 65 56 60 62 56 54 60 66 66 63 63 64 67 65 61 68 69 73 77 76
60 60 60 60 60 60 60 60 60 61 61 61 61 61 61 61 54 72 77 75 74 72 71 70 67 60 55 56 62 53 63 62 66 67 64 63 66 66 67 68 74 75 76 74 76
60 60 60 60 60 60 59 60 60 60 60 60 61 61 62 62 65 79 77 76 74 73 71 66 63 59 54 57 62 55 62 66 66 65 63 67 65 64 66 73 75 75 76 74 72
59 59 59 59 59 59 59 59 59 59 60 60 61 62 63 58 77 79 76 73 74 69 73 69 62 63 57 56 54 61 61 63 63 63 63 62 67 65 72 74 75 74 74 74 72
59 59 59 59 59 59 59 58 58 59 60 61 62 66 62 65 78 76 74 72 74 76 72 73 71 66 60 58 60 63 56 60 61 64 64 66 63 63 73 75 72 73 74 75 72
59 58 58 59 59 59 59 58 58 60 61 62 63 62 61 78 76 77 72 79 79 81 77 77 74 65 60 59 62 56 53 47 61 64 69 65 52 66 71 69 69 71 73 73 72
59 58 58 59 59 59 58 57 59 61 62 63 60 60 61 78 78 81 77 77 78 79 77 83 70 62 61 52 47 51 44 49 56 64 63 59 56 66 69 68 66 66 68 69 68
58 58 58 58 58 58 57 58 61 60 62 68 71 60 68 72 79 80 78 80 74 74 71 67 61 54 50 47 40 46 46 49 51 61 62 56 56 63 68 66 63 64 64 65 65
58 57 57 57 57 57 54 60 63 63 62 64 67 68 75 81 83 78 80 76 74 66 56 61 53 48 54 54 57 55 52 51 56 62 55 53 55 61 64 62 60 60 62 62 63
57 57 57 57 57 56 51 63 69 71 60 71 73 73 79 80 71 76 78 66 63 55 60 55 49 60 64 62 60 56 52 50 56 62 57 55 56 58 61 59 60 59 60 62 62
56 56 56 56 55 56 62 70 75 71 57 68 75 73 73 77 71 71 74 67 60 56 58 49 58 67 65 59 57 53 50 51 51 57 57 54 49 54 60 60 61 59 60 61 61
56 56 56 55 60 60 66 75 72 70 48 61 69 74 74 72 68 79 78 70 61 57 58 55 65 63 60 58 58 48 60 58 55 49 41 52 36 47 51 53 56 55 56 59 60
55 56 56 54 50 60 73 69 69 67 38 67 70 78 74 69 70 71 78 69 60 59 58 54 57 58 56 58 60 54 61 55 55 47 42 46 36 43 51 48 50 54 59 58 59
55 56 55 54 50 61 68 68 67 49 40 62 70 67 65 70 70 72 71 71 67 59 58 56 64 62 60 63 62 63 55 49 47 41 30 42 40 38 43 47 52 55 56 58 57
55 54 53 60 61 66 65 63 47 40 65 58 60 64 63 62 65 65 60 55 50 44 44 52 56 62 64 54 58 53 43 29 31 28 32 44 38 39 49 55 54 52 56 57 56
53 53 54 62 59 65 62 54 40 57 56 64 63 63 58 61 60 61 57 51 56 51 43 41 39 54 62 54 49 49 44 32 27 25 32 44 35 41 54 56 56 55 53 56 56
52 54 58 66 65 63 56 42 45 54 62 59 59 54 54 60 58 56 53 52 54 52 42 40 44 59 61 60 55 49 40 49 33 34 26 36 43 49 52 53 54 53 54 53 54
45 51 58 71 69 60 51 47 54 64 64 61 50 55 48 53 52 50 51 58 57 59 54 47 37 54 58 59 58 51 54 38 34 21 24 34 38 37 45 46 50 49 49 51 54
49 54 67 69 66 55 45 49 60 67 65 58 53 51 53 51 52 50 53 58 61 58 56 46 42 45 51 48 46 46 45 44 41 33 28 29 35 48 44 47 47 47 48 50 52
45 51 68 67 53 48 48 58 59 64 65 62 58 56 52 53 50 51 52 56 62 59 49 49 41 36 44 56 60 54 47 46 33 34 33 36 35 49 49 49 48 47 48 51 53
41 47 64 64 47 46 54 62 64 62 59 59 56 58 56 50 45 52 55 62 62 56 50 48 39 31 38 45 55 48 52 47 42 38 35 33 32 52 51 49 49 46 47 52 53
43 46 53 54 52 49 49 54 55 65 62 61 58 58 52 49 50 48 52 60 61 59 60 54 41 37 30 39 45 43 49 50 43 35 37 36 38 46 47 46 47 46 48 50 52
45 47 50 43 49 49 48 53 54 55 60 58 55 56 50 43 45 47 51 53 57 59 52 47 39 42 45 48 50 49 50 49 47 43 35 40 40 45 46 47 47 47 48 48 50
45 44 47 46 50 50 48 51 54 56 54 53 50 54 50 43 47 44 46 45 47 50 46 46 39 40 42 50 51 48 52 51 50 48 44 44 43 50 50 50 48 47 46 47 48
47 48 46 44 47 46 47 52 56 56 57 60 55 51 50 52 54 53 52 50 52 48 44 43 40 37 35 47 47 39 47 49 48 47 46 38 45 47 48 49 46 46 46 46 47
MSLP
1017.61 1017.37 1017.07 1016.74 1016.50 1016.29 1016.02 1015.75 1015.59 1015.41 1015.17 1014.91 1014.61 1014.29 1013.93 1013.45 1012.37 1012.02 1011.71 1010.97 1010.76 1010.77 1010.71 1010.43 1010.05 1009.98 1010.10 1010.33 1009.87 1010.29 1011.80 1012.03 1011.01 1009.85 1009.13 1008.32 1007.73 1007.13 1006.55 1006.20 1005.58 1005.68 1005.35 1005.23 1005.25
1017.64 1017.33 1017.00 1016.67 1016.34 1016.13 1015.95 1015.69 1015.44 1015.28 1015.10 1014.84 1014.55 1014.21 1013.85 1013.60 1013.06 1012.01 1010.60 1010.40 1010.35 1010.55 1010.50 1010.62 1010.42 1010.25 1010.37 1010.02 1009.84 1010.37 1011.21 1011.09 1009.99 1009.17 1008.69 1008.26 1007.87 1007.50 1007.21 1007.02 1006.56 1005.75 1004.91 1005.23 1005.34
1017.75 1017.37 1017.01 1016.64 1016.31 1015.95 1015.67 1015.49 1015.32 1015.15 1014.93 1014.70 1014.37 1013.93 1013.68 1013.53 1012.91 1011.33 1010.28 1010.18 1010.17 1010.55 1010.68 1010.83 1010.71 1010.64 1010.63 1010.06 1010.13 1010.13 1010.22 1009.87 1009.15 1008.61 1008.27 1007.89 1007.55 1007.42 1007.29 1007.19 1006.74 1006.25 1005.75 1005.31 1004.99
1017.88 1017.44 1017.03 1016.64 1016.23 1015.87 1015.55 1015.23 1015.05 1014.93 1014.83 1014.66 1014.31 1013.81 1013.35 1013.20 1012.37 1010.59 1010.07 1009.93 1009.94 1010.39 1010.48 1010.45 1010.45 1010.53 1010.91 1010.77 1010.32 1010.23 1009.66 1009.57 1008.97 1008.33 1008.36 1007.94 1007.49 1007.37 1007.09 1006.45 1005.95 1005.68 1005.37 1005.33 1005.28
1018.06 1017.58 1017.09 1016.67 1016.28 1015.83 1015.41 1015.08 1014.83 1014.69 1014.61 1014.47 1014.19 1013.76 1013.26 1012.69 1011.21 1009.57 1009.73 1009.75 1010.09 1010.29 1010.33 1010.43 1010.59 1010.71 1011.10 1010.97 1010.52 1010.19 1010.00 1009.30 1008.69 1008.33 1008.09 1007.65 1007.27 1007.33 1006.77 1005.76 1005.33 1005.21 1005.16 1005.20 1005.25
1018.11 1017.61 1017.05 1016.54 1016.17 1015.79 1015.38 1014.99 1014.68 1014.46 1014.36 1014.23 1013.94 1013.68 1013.40 1011.91 1009.50 1009.35 1009.85 1010.32 1010.09 1010.20 1009.98 1009.79 1010.23 1010.20 1010.70 1010.95 1011.05 1010.42 1010.01 1009.33 1008.68 1008.25 1007.69 1007.61 1007.01 1007.04 1005.94 1005.39 1005.27 1005.01 1004.94 1004.75 1004.91
1018.26 1017.69 1017.09 1016.48 1015.97 1015.54 1015.08 1014.70 1014.43 1014.31 1014.23 1014.06 1013.86 1013.60 1013.05 1010.68 1009.31 1009.57 1009.90 1009.72 1009.51 1009.76 1009.38 1009.34 1009.53 1010.05 1010.57 1010.95 1010.65 1010.58 1010.33 1009.29 1008.57 1007.96 1007.57 1007.23 1007.31 1006.91 1005.53 1005.37 1005.49 1005.11 1004.81 1004.41 1004.40
1018.23 1017.62 1016.95 1016.35 1015.79 1015.33 1014.82 1014.26 1013.89 1013.93 1013.96 1013.92 1013.85 1013.53 1012.08 1009.57 1009.17 1009.33 1009.61 1009.09 1008.73 1008.58 1008.66 1008.71 1009.03 1009.81 1010.43 1010.83 1010.91 1010.93 1010.82 1010.14 1008.44 1008.06 1007.22 1007.35 1007.45 1006.31 1005.86 1006.08 1005.82 1005.56 1005.28 1004.72 1004.21
1018.05 1017.42 1016.77 1016.15 1015.49 1014.95 1014.29 1013.67 1013.43 1013.49 1013.68 1013.71 1013.67 1013.17 1011.36 1009.32 1009.12 1008.68 1008.72 1008.91 1008.66 1008.37 1008.17 1008.37 1009.18 1009.97 1010.58 1011.21 1011.77 1011.54 1011.27 1010.65 1009.20 1007.73 1007.90 1007.65 1007.49 1006.70 1006.05 1006.14 1006.51 1006.62 1006.45 1006.43 1006.46
1018.13 1017.34 1016.55 1015.84 1015.21 1014.53 1013.76 1013.07 1013.05 1013.09 1013.59 1013.47 1013.11 1012.97 1010.71 1009.32 1008.38 1008.28 1008.33 1008.53 1008.60 1008.60 1008.44 1008.75 1009.61 1010.38 1011.34 1011.85 1012.17 1011.51 1011.07 1010.40 1009.71 1008.25 1007.89 1007.89 1007.65 1006.78 1006.41 1006.63 1007.28 1007.47 1007.81 1007.45 1007.45
1018.29 1017.40 1016.46 1015.59 1015.15 1014.49 1013.59 1013.01 1013.25 1012.93 1012.66 1012.17 1011.72 1011.07 1009.64 1008.59 1007.96 1008.27 1008.17 1008.37 1008.67 1009.13 1009.65 1009.41 1010.49 1010.74 1010.37 1010.77 1010.52 1010.64 1010.28 1010.01 1009.17 1008.53 1008.54 1008.47 1008.24 1008.04 1007.79 1007.90 1008.24 1008.38 1008.61 1008.70 1008.24
1018.26 1017.37 1016.29 1015.21 1014.56 1014.21 1014.19 1013.42 1012.13 1011.82 1011.41 1010.56 1010.01 1009.73 1008.89 1008.39 1008.21 1008.18 1008.13 1008.96 1009.49 1009.95 1009.97 1010.10 1010.22 1009.66 1009.69 1009.37 1009.52 1009.66 1009.90 1009.84 1009.25 1008.57 1008.52 1008.61 1008.84 1008.92 1008.83 1009.37 1009.62 1009.71 1009.50 1009.15 1008.39
1018.13 1017.35 1016.27 1014.93 1013.99 1013.72 1013.40 1012.15 1010.81 1010.80 1011.49 1009.83 1008.83 1008.31 1007.88 1007.87 1008.01 1008.11 1008.30 1008.87 1009.60 1010.05 1010.07 1010.44 1009.68 1009.02 1009.01 1008.89 1009.13 1009.43 1009.71 1009.72 1009.65 1009.05 1008.88 1009.10 1009.54 1009.69 1009.86 1010.02 1009.97 1009.89 1009.93 1009.36 1009.16
1017.95 1017.23 1016.45 1015.06 1013.88 1013.66 1012.48 1011.14 1010.69 1010.66 1011.43 1009.84 1008.43 1007.57 1007.48 1007.71 1008.03 1007.81 1007.88 1008.72 1009.53 1010.04 1010.13 1010.05 1008.99 1008.97 1008.79 1008.81 1008.88 1009.31 1009.33 1009.70 1009.96 1010.12 1010.27 1009.87 1010.75 1010.53 1010.44 1010.22 1010.39 1010.44 1010.16 1009.74 1009.32
1017.86 1016.88 1016.40 1016.22 1015.12 1013.59 1011.57 1010.99 1010.78 1011.06 1011.19 1009.38 1008.21 1007.27 1007.50 1008.09 1008.01 1007.92 1007.52 1008.42 1009.08 1009.98 1010.62 1010.45 1009.46 1008.56 1008.69 1008.85 1008.89 1009.39 1009.41 1010.10 1010.40 1010.79 1011.08 1011.09 1011.59 1011.19 1010.93 1010.90 1010.82 1010.71 1010.26 1009.80 1009.51
1017.26 1016.38 1016.04 1015.41 1015.14 1012.36 1011.31 1011.11 1011.10 1011.93 1010.87 1009.54 1008.80 1008.32 1008.59 1008.14 1008.11 1007.95 1008.41 1008.54 1009.48 1010.21 1010.67 1010.55 1009.71 1009.22 1009.37 1009.02 1009.02 1009.46 1010.20 1010.89 1011.49 1012.20 1012.65 1012.39 1012.35 1012.21 1011.74 1011.67 1011.23 1010.92 1010.47 1009.99 1009.36
1016.69 1015.39 1015.39 1014.65 1013.20 1011.64 1011.55 1011.80 1012.64 1011.97 1010.75 1010.76 1010.11 1009.58 1009.61 1009.18 1009.31 1009.30 1010.11 1010.56 1011.31 1011.58 1011.93 1011.25 1010.43 1010.07 1009.70 1009.92 1009.60 1010.33 1011.74 1013.49 1014.08 1014.42 1014.18 1013.08 1013.06 1012.54 1011.97 1011.55 1011.30 1010.78 1010.41 1009.91 1009.47
1016.29 1014.86 1014.26 1013.23 1012.13 1012.13 1012.35 1013.08 1012.97 1012.18 1011.67 1011.30 1010.93 1010.33 1010.60 1010.52 1010.60 1010.51 1010.87 1011.72 1012.11 1012.41 1013.09 1013.06 1011.69 1011.02 1010.77 1010.95 1011.00 1011.21 1012.46 1014.55 1015.75 1016.51 1015.33 1013.52 1012.99 1012.46 1011.59 1011.31 1011.02 1010.88 1010.75 1009.96 1009.23
1016.11 1014.55 1013.91 1011.86 1011.70 1012.36 1013.32 1013.75 1013.08 1012.47 1012.13 1011.83 1011.45 1011.41 1011.52 1011.39 1011.47 1011.66 1011.94 1012.19 1012.37 1012.65 1013.49 1013.60 1012.68 1011.75 1011.27 1010.94 1011.12 1011.51 1013.09 1014.09 1015.83 1016.94 1016.71 1014.56 1013.08 1012.36 1011.50 1011.09 1010.82 1010.65 1010.25 1009.93 1009.37
1017.37 1015.95 1013.61 1011.12 1011.38 1012.63 1013.79 1013.80 1012.89 1012.32 1012.08 1012.08 1012.45 1012.41 1012.50 1012.53 1012.54 1012.54 1012.41 1012.39 1012.38 1012.51 1012.98 1013.86 1013.69 1012.59 1011.85 1011.30 1011.58 1011.85 1013.04 1014.44 1016.19 1017.40 1017.13 1015.34 1013.80 1012.20 1011.73 1011.71 1011.35 1010.82 1010.57 1010.04 1009.15
1017.33 1015.84 1012.29 1011.44 1011.75 1013.52 1014.28 1013.56 1012.85 1012.33 1012.03 1012.32 1012.63 1012.85 1013.01 1013.28 1013.14 1013.03 1012.81 1012.49 1012.27 1012.59 1012.94 1013.93 1014.62 1013.67 1013.18 1012.83 1012.43 1012.57 1013.09 1014.33 1015.63 1016.93 1017.11 1016.06 1013.81 1012.32 1012.11 1011.87 1011.43 1011.03 1010.75 1009.84 1008.77
1018.78 1016.35 1012.22 1011.86 1013.25 1014.17 1014.28 1012.99 1012.57 1012.38 1012.14 1012.35 1012.59 1013.01 1013.35 1013.39 1013.57 1013.38 1013.08 1012.65 1012.55 1012.67 1013.38 1014.06 1014.91 1015.06 1013.88 1012.98 1012.20 1012.39 1013.02 1013.91 1015.62 1016.50 1016.47 1015.95 1013.85 1012.19 1012.13 1011.87 1011.47 1011.15 1010.79 1009.70 1008.80
1020.68 1017.46 1013.07 1012.90 1014.34 1014.96 1014.15 1013.37 1012.58 1012.31 1012.41 1012.59 1012.96 1013.25 1013.35 1013.76 1014.00 1013.59 1013.36 1013.24 1013.02 1013.25 1013.51 1014.13 1015.34 1015.82 1014.61 1013.37 1013.00 1012.65 1012.62 1013.19 1014.05 1014.90 1015.58 1015.59 1013.53 1012.04 1011.74 1011.77 1011.42 1011.36 1010.69 1009.38 1008.53
1021.24 1018.66 1015.85 1015.19 1015.49 1015.33 1014.99 1014.03 1013.23 1012.41 1012.55 1012.74 1013.01 1013.15 1013.58 1013.88 1014.07 1014.23 1013.91 1013.42 1013.44 1013.59 1013.72 1014.22 1015.59 1016.24 1016.11 1014.99 1014.06 1013.21 1012.44 1012.49 1013.17 1014.50 1014.68 1014.42 1013.05 1012.23 1011.81 1011.60 1011.20 1011.01 1010.25 1009.26 1008.40
1021.00 1019.66 1018.37 1017.67 1016.59 1016.25 1015.53 1014.50 1013.61 1013.04 1012.93 1013.15 1013.42 1013.78 1014.06 1014.43 1014.49 1014.46 1014.32 1014.25 1014.09 1014.00 1014.26 1014.93 1015.85 1015.67 1015.16 1014.39 1013.65 1013.02 1012.33 1012.26 1012.63 1013.10 1013.91 1013.48 1013.00 1012.07 1011.67 1011.41 1010.97 1010.73 1010.01 1009.43 1008.53
1020.72 1020.43 1019.42 1018.65 1017.57 1016.61 1015.79 1014.92 1014.09 1013.66 1013.47 1013.57 1013.98 1014.24 1014.37 1014.63 1014.82 1015.01 1014.94 1015.11 1015.05 1014.69 1015.07 1015.45 1015.70 1015.58 1015.00 1013.63 1013.11 1012.49 1011.89 1012.11 1012.08 1012.43 1012.72 1012.77 1012.36 1011.38 1011.05 1010.99 1010.91 1010.58 1010.28 1009.67 1008.80
1021.23 1020.52 1020.21 1019.10 1018.31 1017.24 1016.53 1015.73 1014.44 1013.75 1013.56 1013.56 1013.90 1014.13 1014.25 1014.23 1014.36 1014.31 1014.16 1014.25 1014.39 1014.75 1015.32 1015.91 1015.78 1015.92 1015.13 1013.65 1012.89 1012.89 1012.55 1012.39 1012.36 1012.69 1012.62 1012.44 1011.90 1011.27 1011.07 1010.92 1010.63 1010.37 1010.26 1009.94 1009.35
Wind_Speed
12 11 11 10 10 9 10 11 11 10 10 11 12 13 13 15 15 2 3 6 4 2 4 7 4 5 3 4 3 5 5 2 4 4 3 6 8 7 5 7 5 3 3 2 5
14 13 12 11 11 10 10 10 11 11 10 11 12 12 12 14 4 3 8 7 8 2 5 7 9 8 2 4 2 5 4 7 8 2 3 0 5 5 6 8 6 12 11 1 4
16 15 14 13 12 11 10 10 11 10 10 11 12 13 12 8 1 4 7 9 9 3 1 2 5 2 1 1 4 3 6 6 8 6 2 4 4 2 3 4 6 7 7 10 6
18 17 16 14 13 12 11 11 11 11 11 11 12 14 17 1 3 5 10 12 6 3 3 4 5 5 4 5 5 1 4 1 6 4 5 4 3 5 5 10 9 10 8 3 9
17 18 17 16 15 14 13 12 12 10 9 9 10 11 3 3 7 7 12 10 5 1 2 2 6 5 5 4 9 2 5 9 9 10 7 4 7 5 9 12 9 9 7 8 8
17 17 17 16 15 14 13 12 12 10 8 7 8 10 2 2 4 7 6 2 7 1 4 2 3 0 1 4 2 5 7 10 7 12 8 4 11 4 16 10 11 8 10 10 9
18 17 17 16 16 15 14 13 11 10 8 6 6 3 1 11 0 7 10 7 4 5 3 3 3 4 1 9 2 7 7 9 3 5 8 5 8 8 18 12 12 12 12 12 12
20 19 19 18 16 15 15 15 12 9 7 4 2 1 6 6 3 6 9 6 2 4 3 6 5 4 4 1 7 5 4 6 9 3 7 9 8 13 9 5 9 10 10 10 10
23 22 21 20 19 17 18 17 13 8 4 2 1 2 9 9 3 5 3 3 6 6 5 4 5 4 3 2 5 5 2 4 10 6 3 2 8 7 9 6 8 11 16 15 13
24 24 23 22 21 19 22 9 3 3 3 3 3 3 5 1 4 2 2 5 3 7 6 3 3 1 3 5 4 5 3 4 6 8 8 7 8 11 10 10 11 12 11 14 13
24 24 25 25 21 18 11 3 6 6 0 6 6 5 11 7 1 1 2 4 6 6 3 3 5 6 13 10 9 7 3 5 7 6 2 4 7 16 17 14 13 12 12 11 12
24 25 27 28 24 19 1 2 5 6 8 10 12 12 15 5 3 2 3 4 5 5 6 7 3 8 7 10 5 3 4 6 6 7 5 8 10 7 10 7 11 11 12 14 17
24 24 27 30 30 1 2 6 4 5 3 9 6 5 4 5 4 4 5 4 0 4 8 3 6 9 7 3 5 3 2 5 6 8 5 3 5 5 4 9 9 11 9 12 13
27 24 24 30 3 5 4 7 2 4 5 6 2 4 1 3 3 5 7 6 2 4 5 4 11 9 7 0 4 2 6 5 10 4 5 4 5 2 1 9 10 9 10 13 15
26 26 22 12 5 2 5 7 5 7 4 1 1 1 4 3 3 3 4 2 6 1 6 8 6 15 2 1 1 6 7 5 7 5 3 6 5 4 3 7 7 9 13 12 12
29 27 19 1 2 9 9 8 6 6 2 3 3 5 6 5 1 2 7 5 2 3 4 6 6 7 4 5 3 4 5 6 5 4 4 3 4 5 3 3 6 8 10 12 13
33 32 12 3 5 4 6 6 6 5 3 6 5 7 8 6 7 6 6 8 4 6 6 7 6 5 12 9 8 8 8 5 7 7 5 1 4 5 2 2 4 9 15 15 11
34 29 5 6 5 6 5 6 4 3 4 2 4 9 4 7 4 8 4 3 5 4 4 5 10 7 15 2 6 3 7 5 2 3 6 8 3 4 5 4 6 7 8 13 15
27 5 3 6 6 3 7 5 3 2 2 5 6 5 5 5 3 8 5 1 2 2 3 3 6 10 5 9 2 3 5 4 5 3 3 4 3 5 3 6 11 11 13 15 16
5 5 5 6 5 6 6 3 2 3 2 4 4 3 4 6 5 7 1 4 2 2 5 1 6 3 9 6 9 8 2 4 4 2 5 6 5 6 6 9 10 10 11 15 15
3 4 6 4 6 6 3 4 4 4 4 3 2 3 3 3 4 4 3 3 2 1 5 2 3 8 5 4 2 4 4 1 4 5 3 4 6 3 2 8 10 9 10 13 15
5 2 4 4 5 1 1 3 1 3 6 4 1 2 0 2 3 3 5 5 8 1 2 2 4 4 8 8 2 4 2 3 5 4 4 2 7 1 5 7 7 8 11 14 13
4 5 5 6 2 3 6 4 2 2 2 2 3 2 1 2 3 3 5 4 7 2 3 1 2 4 11 8 2 3 11 5 4 3 3 2 8 3 7 8 8 6 11 14 15
3 5 6 6 0 3 4 4 5 1 2 3 5 3 1 2 2 5 5 3 7 4 5 6 3 7 6 8 6 10 15 5 3 3 4 6 8 8 10 9 9 7 10 14 15
2 3 1 3 5 5 3 3 4 1 3 4 6 5 1 2 3 3 2 6 7 3 2 4 4 5 8 10 12 13 14 10 3 3 5 5 5 8 9 9 8 7 9 12 16
2 3 5 4 4 5 2 4 1 2 2 3 2 4 2 1 3 5 0 3 5 3 2 3 4 2 7 9 6 12 4 6 3 2 2 6 7 8 8 6 7 9 8 11 15
4 4 4 5 5 3 1 7 1 4 2 6 4 1 5 6 5 9 11 8 10 7 3 2 3 1 6 7 5 4 7 5 3 3 3 4 9 5 7 10 7 7 7 9 13
Wind_Direction
4 359 352 347 341 340 340 338 339 340 340 337 336 333 334 336 321 44 320 225 225 336 288 284 292 317 132 241 211 107 66 252 258 306 282 316 13 331 300 21 344 347 72 295 15
3 357 351 345 339 335 334 332 333 337 336 338 336 331 331 337 352 298 247 250 257 337 2 7 327 5 319 268 271 110 128 227 220 269 285 286 45 314 18 352 336 336 332 54 67
4 357 350 345 338 331 329 329 330 333 337 339 337 326 326 325 36 240 226 253 257 39 211 282 261 183 280 277 281 234 194 214 273 251 235 317 338 228 312 299 248 265 276 305 339
6 360 352 344 336 328 323 323 327 331 337 340 333 323 320 235 63 225 212 240 246 142 324 335 336 22 47 351 323 305 279 224 264 345 325 306 266 306 233 242 234 244 247 259 290
1 359 353 346 337 326 319 316 317 323 330 334 324 323 354 8 249 212 202 237 302 232 258 330 39 3 1 340 342 81 322 318 319 307 285 299 281 236 269 264 258 252 283 266 259
358 354 350 345 336 328 318 310 307 311 320 327 322 319 13 333 243 184 181 287 247 254 260 44 171 219 328 320 8 306 304 304 302 296 277 244 288 59 281 278 288 282 267 259 239
354 350 347 343 338 329 319 307 299 299 309 311 315 328 33 234 101 171 161 214 233 213 177 262 173 89 1 330 317 294 330 310 309 271 282 91 318 251 259 266 262 266 250 251 235
351 347 342 339 336 330 314 298 289 291 300 289 282 276 255 264 310 206 177 303 338 255 212 224 180 140 152 249 346 325 26 344 299 291 274 118 259 275 305 288 270 290 289 265 273
347 345 340 337 333 330 319 301 281 274 225 223 344 65 277 310 211 226 145 271 293 299 260 236 114 178 29 46 1 349 249 240 310 290 326 72 275 280 301 6 8 34 48 40 22
344 341 337 336 333 330 321 298 67 292 167 193 268 350 275 248 227 208 235 228 307 324 354 111 74 99 25 75 265 260 259 259 251 294 354 340 307 308 338 76 67 56 32 31 15
342 337 333 331 331 331 344 17 13 2 145 203 210 245 283 251 310 94 191 11 352 51 356 305 103 217 241 200 231 230 247 285 284 294 326 287 304 4 49 48 46 44 37 13 4
340 337 332 327 327 324 176 104 217 227 311 230 244 236 252 234 265 276 83 59 26 326 339 354 236 259 276 230 232 328 313 310 288 308 343 332 317 100 76 62 59 39 17 0 350
337 336 331 324 323 117 198 239 306 98 51 301 228 211 228 143 235 219 134 150 225 306 310 248 255 327 345 45 66 352 288 280 270 301 293 299 310 180 73 63 45 30 1 356 350
332 332 331 328 345 323 282 292 222 89 68 277 252 260 329 177 280 175 196 147 222 267 313 305 308 332 290 196 123 349 267 298 303 318 273 111 269 6 106 48 28 355 348 345 334
327 326 327 316 305 304 260 333 310 58 53 283 224 163 312 169 200 266 213 93 205 213 62 278 294 308 330 167 161 230 278 289 260 265 62 339 75 250 11 10 357 345 338 334 326
325 323 329 122 215 244 312 325 53 48 314 349 61 324 8 325 300 281 31 44 59 62 5 251 279 35 39 327 346 301 8 6 13 48 38 218 108 312 11 337 332 307 314 333 327
326 319 313 237 231 313 323 44 47 104 345 356 336 328 341 4 29 32 63 40 57 17 342 329 334 336 44 3 334 53 50 356 2 6 236 275 36 244 249 305 285 308 327 326 322
328 317 210 226 264 342 44 53 80 74 6 19 305 305 99 15 38 351 34 71 21 77 55 1 330 17 339 256 234 288 124 140 264 290 288 320 178 216 195 227 265 269 289 330 327
324 321 288 262 216 97 67 65 193 85 325 343 337 54 342 15 67 23 7 71 59 86 112 344 276 324 314 336 336 324 47 149 100 29 36 275 338 289 166 342 340 333 339 328 321
330 332 278 273 122 65 72 233 84 69 20 36 46 31 2 4 33 7 336 299 183 121 135 268 306 298 320 7 12 96 190 28 23 32 300 309 298 248 352 311 310 317 326 322 315
355 21 261 62 64 52 130 221 108 178 149 101 351 320 4 357 360 326 308 225 220 242 83 111 128 292 1 35 138 14 7 30 126 137 188 285 260 185 290 293 311 306 318 316 318
337 13 288 31 50 70 260 199 245 121 43 37 55 2 15 349 310 310 355 34 348 268 53 235 145 296 270 265 127 155 251 172 125 249 232 213 271 282 265 296 303 314 302 309 320
339 273 319 80 101 346 308 345 152 135 141 96 344 66 273 349 342 322 346 50 56 41 175 205 15 351 342 354 286 339 321 250 153 103 186 242 264 232 330 321 311 303 297 321 325
341 348 328 34 356 104 15 318 341 162 87 143 219 271 14 344 104 295 312 335 6 275 173 95 146 162 202 234 266 304 305 324 126 115 203 236 282 296 311 314 312 298 300 322 326
148 279 184 314 325 337 317 260 291 351 58 56 352 31 104 252 302 256 325 343 342 95 142 108 216 229 244 261 274 276 286 310 257 186 157 280 275 282 297 297 291 291 296 319 325
66 25 345 290 300 342 15 278 247 143 125 337 34 327 55 215 225 259 272 208 223 298 41 343 263 260 292 268 264 302 278 355 292 282 357 319 294 258 289 301 292 295 302 321 329
320 339 107 277 324 30 336 288 268 142 288 146 170 292 288 262 217 231 213 203 215 190 146 264 206 88 264 302 330 30 342 35 36 8 257 302 265 309 298 313 277 286 307 314 319